CST,Max TemperatureF,Mean TemperatureF,Min TemperatureF,Max Dew PointF,MeanDew PointF,Min DewpointF,Max Humidity, Mean Humidity, Min Humidity, Max Sea Level PressureIn, Mean Sea Level PressureIn, Min Sea Level PressureIn, Max VisibilityMiles, Mean VisibilityMiles, Min VisibilityMiles, Max Wind SpeedMPH, Mean Wind SpeedMPH, Max Gust SpeedMPH,PrecipitationIn, CloudCover, Events, WindDirDegrees
2012-1-1,55,46,36,47,27,13,74,50,31,30.36,30.14,29.76,10,10,10,24,18,39,0.00,2,,290
2012-1-2,35,28,21,16,12,7,60,48,34,30.51,30.40,30.34,10,10,10,24,15,36,0.00,3,,316
2012-1-3,35,26,17,16,11,8,77,54,33,30.58,30.43,30.25,10,10,10,14,7,20,0.00,0,,224
2012-1-4,51,40,30,28,24,17,79,56,36,30.22,30.15,30.06,10,10,10,14,10,20,0.00,0,,232
2012-1-5,57,41,25,35,30,23,92,64,37,30.19,30.08,29.94,10,10,10,16,7,,0.00,0,,198
2012-1-6,62,50,37,51,38,31,86,66,36,29.95,29.89,29.81,10,10,10,18,10,24,0.00,1,,209
2012-1-7,53,44,30,42,30,25,89,60,34,30.23,30.10,29.90,10,10,10,9,5,,0.00,0,,352
2012-1-8,46,36,26,37,31,25,96,75,56,30.31,30.26,30.23,10,10,10,9,3,,0.02,5,Rain,34
2012-1-9,50,39,28,34,29,24,92,69,43,30.25,30.19,30.15,10,10,10,8,3,,0.00,2,,337
2012-1-10,55,40,24,40,30,22,92,71,37,30.14,29.98,29.73,10,9,3,8,2,,0.32,2,Rain,88
2012-1-11,45,40,35,43,40,36,100,95,87,29.70,29.60,29.52,6,2,0,10,4,,0.66,6,Fog-Rain,299
2012-1-12,39,28,17,37,19,8,100,76,62,29.96,29.77,29.59,10,5,0,20,12,30,0.00,8,Fog-Snow,296
2012-1-13,27,22,18,16,13,9,88,70,61,30.20,30.11,29.97,10,10,8,16,9,23,0.00,4,Snow,278
2012-1-14,41,28,16,23,19,14,92,72,49,30.35,30.16,30.00,10,10,7,13,3,21,0.00,2,,271
2012-1-15,43,32,21,29,24,18,92,71,51,30.45,30.32,30.13,10,9,6,20,5,23,0.00,0,,165
2012-1-16,63,54,45,57,48,31,84,72,54,30.11,29.92,29.79,10,10,10,31,22,41,0.00,5,Rain-Thunderstorm,201
2012-1-17,63,45,26,57,41,17,94,77,64,30.34,29.94,29.67,10,9,0,32,21,41,0.01,7,Rain-Thunderstorm,272
2012-1-18,33,26,19,23,18,14,81,72,54,30.38,30.27,30.07,10,10,10,13,8,,0.00,2,,252
2012-1-19,43,35,25,27,25,19,80,72,53,30.12,30.04,29.96,10,10,10,12,8,,0.00,3,,220
2012-1-20,36,30,23,32,26,16,100,82,71,30.12,29.96,29.84,10,7,2,14,8,20,0.03,8,Rain,34
2012-1-21,30,27,24,28,24,21,92,85,78,30.20,30.12,29.97,10,9,5,20,12,25,0.00,8,,34
2012-1-22,63,46,30,61,44,28,100,94,83,30.09,29.78,29.50,10,4,1,37,11,55,0.56,8,Rain-Thunderstorm,161
2012-1-23,57,46,30,52,37,29,96,75,57,30.09,29.84,29.52,10,10,10,22,11,31,0.00,4,,245
2012-1-24,46,37,28,33,29,26,96,73,54,30.33,30.27,30.12,10,10,10,8,4,,0.00,1,,22
2012-1-25,37,34,32,36,33,29,100,92,82,30.31,30.17,29.93,10,5,2,9,5,,0.27,7,Rain,67
2012-1-26,39,38,37,38,37,35,100,94,86,29.92,29.81,29.71,10,5,2,10,5,16,0.19,8,Rain,327
2012-1-27,44,39,34,36,33,30,96,82,68,30.06,29.98,29.82,10,9,5,8,3,,0.02,3,Rain,274
2012-1-28,44,37,30,37,27,19,100,70,37,30.36,30.23,30.00,10,9,4,20,9,36,0.04,3,Rain,279
2012-1-29,51,40,28,28,23,18,78,54,31,30.31,30.27,30.24,10,10,10,16,9,21,0.00,0,,217
2012-1-30,59,46,32,39,32,26,85,60,40,30.23,30.16,30.08,10,10,10,22,10,30,0.00,0,,193
2012-1-31,60,54,48,53,45,32,84,70,50,30.11,30.05,30.00,10,10,10,23,17,29,0.00,6,,200